Radiance Of The Seas — C6SE7 — position and weather

sailwx.info

Track history (hours):
 
Tides and Currents Weather Stations Pressure Air Temp Water Temp Dewpoint Dewpoint Depression Visibility Wind Speed Wind Dir Waves Ship Positions

Radiance Of The Seas

Operator: Royal Caribbean Cruises Ltd

Last reported at 2018-Apr-23 15:00 UTC. Time now 2018-Apr-25 02:39 UTC.
Position S 30°36' W 169°12'.

Type: Passenger vessel. MMSI: 311319000.

Wind from 150 at 28 knots

Barometer 1022.0 mb
Air temperature 18.5 ° C
Water temperature 23.2 ° C

Date/timePositionNaut miles runAvg speedWind from/ knotsBaromVisibWave heightAir tempDewpointWater temp
2018-Apr-23 15:00S 30°36' W 169°12'11829.4 150 / 281022.0 18.5 23.2
2018-Apr-23 11:00S 31°42' W 171°06'   150 / 291024.010.8 18.0 23.0
2018-Apr-17 11:17S 34°00' E 151°50'518.4
2018-Apr-17 11:00S 33°59' E 151°45'918.4
2018-Apr-17 10:30S 33°55' E 151°34'918.4
2018-Apr-17 10:00S 33°52' E 151°24'612.2
2018-Apr-17 09:30S 33°50' E 151°17'4 7.8
2018-Apr-17 09:00S 33°51' E 151°13'0 0.0
2018-Apr-16 20:12S 33°52' E 151°13'0 1.2
2018-Apr-16 20:00S 33°51' E 151°13'4 7.7
2018-Apr-16 19:31S 33°50' E 151°17'612.2
2018-Apr-16 19:00S 33°50' E 151°24'4 7.2
2018-Apr-16 18:30S 33°51' E 151°28'4 7.2
2018-Apr-16 18:00S 33°51' E 151°33'4 6.9
2018-Apr-16 17:30S 33°52' E 151°37'4 7.2
2018-Apr-16 17:00S 33°52' E 151°41'4 7.9
2018-Apr-16 16:30S 33°53' E 151°46'3 6.4
2018-Apr-16 16:00S 33°51' E 151°48'3 6.9
2018-Apr-16 15:30S 33°47' E 151°49'3 6.3
2018-Apr-16 15:00S 33°44' E 151°50'3 6.5
2018-Apr-16 14:30S 33°41' E 151°51'4 6.9
2018-Apr-16 13:57S 33°37' E 151°52'3 7.1
2018-Apr-16 13:30S 33°34' E 151°53'4 7.0
2018-Apr-16 13:00S 33°31' E 151°54'15 6.6
2018-Apr-16 10:43S 33°19' E 151°44'4 0.3
2018-Apr-15 19:12S 33°17' E 151°40'0 0.3
2018-Apr-15 19:00S 33°17' E 151°40'0 0.1
2018-Apr-15 18:30S 33°17' E 151°40'0 0.0
2018-Apr-15 17:45S 33°17' E 151°40'12 0.6
2018-Apr-14 20:28S 33°15' E 151°54'43 7.6
2018-Apr-14 14:45S 33°57' E 152°06'622.4
2018-Apr-14 14:29S 33°51' E 152°05'3014.8
2018-Apr-14 12:26S 34°16' E 151°46'921.3
2018-Apr-14 12:00S 34°07' E 151°43'1223.1
2018-Apr-14 11:30S 33°56' E 151°43'1223.4
2018-Apr-14 11:01S 33°44' E 151°43'612.4
2018-Apr-14 10:30S 33°38' E 151°44'1622.9
2018-Apr-14 09:47S 33°23' E 151°51'518.4
2018-Apr-14 09:30S 33°18' E 151°53'510.0
2018-Apr-14 09:00S 33°13' E 151°56'5 9.6
2018-Apr-14 08:30S 33°09' E 151°58'4 7.6
2018-Apr-14 08:00S 33°05' E 151°56'12 9.1
2018-Apr-14 06:43S 32°55' E 151°49'2 7.5
2018-Apr-14 06:29S 32°55' E 151°47'1 1.3
2018-Apr-14 05:58S 32°55' E 151°46'0 0.0
2018-Apr-14 05:25S 32°55' E 151°46'0 0.0
2018-Apr-14 04:58S 32°55' E 151°46'0 0.0
2018-Apr-14 04:28S 32°55' E 151°46'0 0.0
2018-Apr-14 03:58S 32°55' E 151°46'0 0.0
2018-Apr-14 03:28S 32°55' E 151°46'0 0.0
2018-Apr-14 02:55S 32°55' E 151°46'0 0.0
2018-Apr-14 02:28S 32°55' E 151°46'0 0.0
2018-Apr-14 01:58S 32°55' E 151°46'0 0.0
2018-Apr-14 01:28S 32°55' E 151°46'0 0.0
2018-Apr-14 00:58S 32°55' E 151°46'0 0.0
2018-Apr-14 00:28S 32°55' E 151°46'0 0.0
2018-Apr-13 23:58S 32°55' E 151°46'0 0.0
2018-Apr-13 23:28S 32°55' E 151°46'0 0.0
2018-Apr-13 22:58S 32°55' E 151°46'0 0.0
2018-Apr-13 22:25S 32°55' E 151°46'0 0.0
2018-Apr-13 21:58S 32°55' E 151°46'0 0.0
2018-Apr-13 21:28S 32°55' E 151°46'0 0.0
2018-Apr-13 20:58S 32°55' E 151°46'0 0.0
2018-Apr-13 20:28S 32°55' E 151°46'0 0.0
2018-Apr-13 19:58S 32°55' E 151°46'0 0.0
2018-Apr-13 19:28S 32°55' E 151°46'0 0.0
2018-Apr-13 18:58S 32°55' E 151°46'0 0.0
2018-Apr-13 18:28S 32°55' E 151°46'0 0.0
2018-Apr-13 17:55S 32°55' E 151°46'0 0.0
2018-Apr-13 17:28S 32°55' E 151°46'0 0.0
2018-Apr-13 16:58S 32°55' E 151°46'0 0.0
2018-Apr-13 16:28S 32°55' E 151°46'0 0.0
2018-Apr-13 15:58S 32°55' E 151°46'0 0.0
2018-Apr-13 15:28S 32°55' E 151°46'  
Track history (hours):
 
Tides and Currents Weather Stations Pressure Air Temp Water Temp Dewpoint Dewpoint Depression Visibility Wind Speed Wind Dir Waves Ship Positions

Radiance Of The Seas

Operator: Royal Caribbean Cruises Ltd

Last reported at 2018-Apr-23 15:00 UTC. Time now 2018-Apr-25 02:39 UTC.
Position S 30°36' W 169°12'.

Type: Passenger vessel. MMSI: 311319000.

Wind from 150 at 28 knots

Barometer 1022.0 mb
Air temperature 18.5 ° C
Water temperature 23.2 ° C

Date/timePositionNaut miles runAvg speedWind from/ knotsBaromVisibWave heightAir tempDewpointWater temp
2018-Apr-23 15:00S 30°36' W 169°12'11829.4 150 / 281022.0 18.5 23.2
2018-Apr-23 11:00S 31°42' W 171°06'   150 / 291024.010.8 18.0 23.0
2018-Apr-17 11:17S 34°00' E 151°50'518.4
2018-Apr-17 11:00S 33°59' E 151°45'918.4
2018-Apr-17 10:30S 33°55' E 151°34'918.4
2018-Apr-17 10:00S 33°52' E 151°24'612.2
2018-Apr-17 09:30S 33°50' E 151°17'4 7.8
2018-Apr-17 09:00S 33°51' E 151°13'0 0.0
2018-Apr-16 20:12S 33°52' E 151°13'0 1.2
2018-Apr-16 20:00S 33°51' E 151°13'4 7.7
2018-Apr-16 19:31S 33°50' E 151°17'612.2
2018-Apr-16 19:00S 33°50' E 151°24'4 7.2
2018-Apr-16 18:30S 33°51' E 151°28'4 7.2
2018-Apr-16 18:00S 33°51' E 151°33'4 6.9
2018-Apr-16 17:30S 33°52' E 151°37'4 7.2
2018-Apr-16 17:00S 33°52' E 151°41'4 7.9
2018-Apr-16 16:30S 33°53' E 151°46'3 6.4
2018-Apr-16 16:00S 33°51' E 151°48'3 6.9
2018-Apr-16 15:30S 33°47' E 151°49'3 6.3
2018-Apr-16 15:00S 33°44' E 151°50'3 6.5
2018-Apr-16 14:30S 33°41' E 151°51'4 6.9
2018-Apr-16 13:57S 33°37' E 151°52'3 7.1
2018-Apr-16 13:30S 33°34' E 151°53'4 7.0
2018-Apr-16 13:00S 33°31' E 151°54'15 6.6
2018-Apr-16 10:43S 33°19' E 151°44'4 0.3
2018-Apr-15 19:12S 33°17' E 151°40'0 0.3
2018-Apr-15 19:00S 33°17' E 151°40'0 0.1
2018-Apr-15 18:30S 33°17' E 151°40'0 0.0
2018-Apr-15 17:45S 33°17' E 151°40'12 0.6
2018-Apr-14 20:28S 33°15' E 151°54'43 7.6
2018-Apr-14 14:45S 33°57' E 152°06'622.4
2018-Apr-14 14:29S 33°51' E 152°05'3014.8
2018-Apr-14 12:26S 34°16' E 151°46'921.3
2018-Apr-14 12:00S 34°07' E 151°43'1223.1
2018-Apr-14 11:30S 33°56' E 151°43'1223.4
2018-Apr-14 11:01S 33°44' E 151°43'612.4
2018-Apr-14 10:30S 33°38' E 151°44'1622.9
2018-Apr-14 09:47S 33°23' E 151°51'518.4
2018-Apr-14 09:30S 33°18' E 151°53'510.0
2018-Apr-14 09:00S 33°13' E 151°56'5 9.6
2018-Apr-14 08:30S 33°09' E 151°58'4 7.6
2018-Apr-14 08:00S 33°05' E 151°56'12 9.1
2018-Apr-14 06:43S 32°55' E 151°49'2 7.5
2018-Apr-14 06:29S 32°55' E 151°47'1 1.3
2018-Apr-14 05:58S 32°55' E 151°46'0 0.0
2018-Apr-14 05:25S 32°55' E 151°46'0 0.0
2018-Apr-14 04:58S 32°55' E 151°46'0 0.0
2018-Apr-14 04:28S 32°55' E 151°46'0 0.0
2018-Apr-14 03:58S 32°55' E 151°46'0 0.0
2018-Apr-14 03:28S 32°55' E 151°46'0 0.0
2018-Apr-14 02:55S 32°55' E 151°46'0 0.0
2018-Apr-14 02:28S 32°55' E 151°46'0 0.0
2018-Apr-14 01:58S 32°55' E 151°46'0 0.0
2018-Apr-14 01:28S 32°55' E 151°46'0 0.0
2018-Apr-14 00:58S 32°55' E 151°46'0 0.0
2018-Apr-14 00:28S 32°55' E 151°46'0 0.0
2018-Apr-13 23:58S 32°55' E 151°46'0 0.0
2018-Apr-13 23:28S 32°55' E 151°46'0 0.0
2018-Apr-13 22:58S 32°55' E 151°46'0 0.0
2018-Apr-13 22:25S 32°55' E 151°46'0 0.0
2018-Apr-13 21:58S 32°55' E 151°46'0 0.0
2018-Apr-13 21:28S 32°55' E 151°46'0 0.0
2018-Apr-13 20:58S 32°55' E 151°46'0 0.0
2018-Apr-13 20:28S 32°55' E 151°46'0 0.0
2018-Apr-13 19:58S 32°55' E 151°46'0 0.0
2018-Apr-13 19:28S 32°55' E 151°46'0 0.0
2018-Apr-13 18:58S 32°55' E 151°46'0 0.0
2018-Apr-13 18:28S 32°55' E 151°46'0 0.0
2018-Apr-13 17:55S 32°55' E 151°46'0 0.0
2018-Apr-13 17:28S 32°55' E 151°46'0 0.0
2018-Apr-13 16:58S 32°55' E 151°46'0 0.0
2018-Apr-13 16:28S 32°55' E 151°46'0 0.0
2018-Apr-13 15:58S 32°55' E 151°46'0 0.0
2018-Apr-13 15:28S 32°55' E 151°46'  

Dump ship's entire track history